Home   Weather   Kralendijk   Past weeks

Flag for Caribbean Netherlands Past Weather in Kralendijk, Bonaire, Caribbean Netherlands — Yesterday and Last 2 Weeks

Now
86 °F

Broken clouds.


Feels Like: 93 °F
Forecast: N/A
Wind: 20 mph from East

Location: Flamingo Airport - Bonaire

Current Time: Dec 6, 2016 at 2:05:49 pm

Latest Report: Dec 6, 2016 at 12:55 pm


Visibility: N/A

Pressure: 29.92 "Hg

Humidity: 66%

Dew Point: 73 °F

Location of KralendijkLocation

Past Weather in Kralendijk — Graph

°F

Kralendijk Temperature Yesterday

Maximum temperature yesterday: 88 °F (at 1:55 pm)
Minimum temperature yesterday: 79 °F (at 12:55 am)
Average temperature yesterday: 82 °F

High & Low Weather Summary for the Past Weeks

 TemperatureHumidityPressure
High90 °F (Nov 24, 1:55 pm)100% (Nov 27, 7:55 am)29.98 "Hg (Nov 27, 7:55 am)
Low75 °F (Nov 27, 7:55 am)59% (Nov 22, 3:55 pm)29.68 "Hg (Nov 27, 3:55 pm)
Average82 °F81%29.82 "Hg
* Reported Nov 21 12:55 pm — Dec 6 12:55 pm, Kralendijk, Weather by CustomWeather, © 2016

Note: Actual official high and low records may vary slightly from our data, if they occured in-between our weather recording intervals... More about our weather records

Advertising

Kralendijk Weather History for the Previous 24 Hours

Scroll right to see more
 ConditionsComfort  
Time TempWeatherWind HumidityBarometerVisibility
12:55 pm
Tue, Dec 6
86 °FBroken clouds.20 mph66%29.92 "HgN/A
11:55 am86 °FPassing clouds.20 mph70%29.95 "HgN/A
10:55 am86 °FPassing clouds.21 mph66%29.98 "HgN/A
9:55 am84 °FPassing clouds.20 mph70%29.98 "HgN/A
8:55 am84 °FPassing clouds.18 mph70%29.98 "HgN/A
7:55 am81 °FPassing clouds.12 mph84%29.95 "HgN/A
6:55 am81 °FScattered clouds.8 mph79%29.92 "HgN/A
5:55 am79 °FPassing clouds.9 mph84%29.89 "HgN/A
4:55 am81 °FPassing clouds.9 mph79%29.89 "HgN/A
3:55 am81 °FPassing clouds.10 mph79%29.86 "HgN/A
2:55 am81 °FPassing clouds.15 mph79%29.86 "HgN/A
1:55 am81 °FPassing clouds.12 mph79%29.89 "HgN/A
12:55 am82 °FPartly cloudy.15 mph74%29.89 "HgN/A
11:55 pm
Mon, Dec 5
82 °FPassing clouds.15 mph74%29.89 "HgN/A
10:55 pm82 °FPassing clouds.14 mph74%29.89 "HgN/A
9:55 pm82 °FPassing clouds.12 mph79%29.89 "HgN/A
8:55 pm82 °FPassing clouds.15 mph74%29.89 "HgN/A
7:55 pm82 °FPassing clouds.14 mph74%29.86 "HgN/A
6:55 pm81 °FPassing clouds.13 mph84%29.86 "HgN/A
5:55 pm82 °FScattered clouds.15 mph74%29.83 "HgN/A
4:55 pm84 °FScattered clouds.15 mph74%29.83 "HgN/A
3:55 pm84 °FScattered clouds.16 mph70%29.83 "HgN/A
2:55 pm86 °FScattered clouds.16 mph66%29.86 "HgN/A
Weather by CustomWeather, © 2016

See weather overviewHow to use our weather pages